Location: Laan Hart van Zuid
(52.2563°N, 6.7904°E)
Time: 09:44:42
(UTC+02:00)

ISS - Pass Details

Date: 16 May 2024
Orbit: 411 x 419 km, 51.6° (Epoch: 29 May)

Event Time Altitude Azimuth Distance (km) Brightness Sun altitude
Rises 01:40:00 0° 282° (WNW) 2,371 0.2 -18.5°
Reaches altitude 10° 01:42:12 10° 273° (W) 1,502 -1.0 -18.5°
Enters shadow 01:43:19 18° 263° (W) 1,098 -1.8 -18.5°
